sat.trackr.live / text

‹ back to catalog

STARLINK-35591

NORAD 66984 · 2025-288AB

PAYLOAD ACTIVE UNKNOWN

§ Identity

Operator
Country
US
Launch date
2025-12-08
Launch site
AFETR
Launch vehicle
Mass (kg)
RCS (m²)

Purposes: comms

External: N2YO · Heavens-Above · Gunter

§ Orbital elements

Epoch: 2026-05-25T04:31:12.726336Z

Period
94.27 min
Inclination
43.0022°
Eccentricity
0.0002922
Mean motion
15.27587362 rev/d
Perigee alt
481.0 km
Apogee alt
485.0 km
Semi-major
6,861.2 km
B*
5.7427e-4
RAAN
311.7081°
Arg perigee
269.3964°
Mean anomaly
90.6553°
Rev number
2,698

§ Raw data

STARLINK-355911 66984U 25288AB  26145.18834174  .00015578  00000+0  57427-3 0  99952 66984  43.0022 311.7081 0002922 269.3964  90.6553 15.27587362 26980

JSON: /api/v1/satellites/66984 · /tle

For live sub-satellite position, see the globe view (requires WebGL).

§ Visibility from observer

Set your observer location to see the next 7 days of passes ≥ 10°. The values pass through the URL so the page stays shareable.

No JS? Fill the form by hand. The geolocation button needs JavaScript.